Flag for Angola Weather past 2 weeks in Luanda, Angola

Now
75 °F

Rain showers. Passing clouds.


Feels Like: 74 °F
Forecast: 77 / 83 °F
Wind: 9 mph from Southwest

Location: Luanda Airport

Current Time: Mar 27, 2015 at 6:52:11 AM

Latest Report: Mar 27, 2015 at 5:00 AM


Visibility: 3 mi

Pressure: 29.89 "Hg

Humidity: 94%

Dew point: 73 °F

Location of LuandaLocation

Historic Weather in Luanda — Graph

°F

Luanda temperature yesterday

Maximum temperature yesterday: 86 °F (at 1:00 PM)
Minimum temperature yesterday: 75 °F (at 5:00 AM)
Average temperature yesterday: 80 °F

Past Weeks' High & Low Weather Summary

 TemperatureHumidityPressure
High91 °F (Mar 14, 2:00 PM)100% (Mar 26, 5:00 AM)30.07 "Hg (Mar 26, 5:00 AM)
Low73 °F (Mar 21, 10:00 PM)52% (Mar 20, 2:00 PM)29.65 "Hg (Mar 14, 4:00 PM)
Average82 °F81%29.81 "Hg
* Reported Mar 12 5:00 AM — Mar 27 5:00 AM, Luanda, Weather by CustomWeather, © 2015

Note: Actual official high and low records may vary slightly from our data, if they occured in-between our weather recording intervals... More about our weather records

Advertising

Luanda weather history for previous 24 hours

 ConditionsComfort  
Time TempWeatherWind HumidityBarometerVisibility
5:00 AM
Fri, Mar 27
75 °FRain showers. Passing clouds.9 mph94%29.89 "Hg3 mi
2:00 AM79 °FPassing clouds.2 mph89%29.86 "HgN/A
1:00 AM79 °FPassing clouds.2 mph89%29.86 "HgN/A
12:00 AM79 °FPassing clouds.2 mph89%29.89 "HgN/A
11:00 PM
Thu, Mar 26
79 °FPassing clouds.2 mph89%29.92 "HgN/A
10:00 PM79 °FPartly cloudy.2 mph89%29.89 "HgN/A
9:00 PM79 °FPartly cloudy.5 mph89%29.89 "Hg5 mi
7:00 PM81 °FPassing clouds.3 mph89%29.89 "HgN/A
6:00 PM81 °FBroken clouds.6 mph89%29.83 "HgN/A
5:00 PM81 °FPartly sunny.6 mph84%29.83 "HgN/A
4:00 PM81 °FBroken clouds.9 mph89%29.83 "HgN/A
3:00 PM82 °FBroken clouds.7 mph79%29.83 "HgN/A
2:00 PM84 °FBroken clouds.9 mph79%29.83 "HgN/A
1:00 PM86 °FPartly sunny.9 mph70%29.86 "HgN/A
12:00 PM84 °FBroken clouds.6 mph74%29.92 "HgN/A
11:00 AM82 °FScattered clouds.6 mph84%29.92 "HgN/A
10:00 AM82 °FPartly sunny.5 mph79%29.92 "HgN/A
9:00 AM84 °FScattered clouds.5 mph79%29.92 "HgN/A
8:05 AM81 °FScattered clouds.3 mph89%29.89 "HgN/A
8:00 AM81 °FScattered clouds.3 mph89%29.89 "HgN/A
7:00 AM79 °FBroken clouds.3 mph89%29.86 "HgN/A
6:00 AM75 °FPassing clouds.2 mph100%29.83 "HgN/A
Weather by CustomWeather, © 2015

See weather overviewHow to use our weather pages